When you browse on this site, cookies collect data to enhance your experience and personalize the content and advertising you see.
Visit our Privacy Policy to learn more. By continuing to use the site, you agree to this use of cookies and data.
  • In United Kingdom
  • List of Countries
  • For 7 days
  • Water Temperature
  • Satellite Maps
  • Weather Map
  • Weather Widgets
  • user-avatar
    Login

    Hourly Weather Ovsyuky

    Today, 19 April, Friday

    Time Temperature Precipitation Wind Pressure Humidity
    00:00 +9°C° 0.3 mm 1 mps 758 mmHg 66%
    01:00 +9°C° 0.3 mm 1 mps 758 mmHg 71%
    02:00 +8°C° 0 mm 1 mps 758 mmHg 69%
    03:00 +8°C° 0 mm 1 mps 758 mmHg 69%
    04:00 +6°C° 0 mm 2 mps 758 mmHg 69%
    05:00 +6°C° 0 mm 2 mps 758 mmHg 69%
    06:00 +7°C° 0 mm 2 mps 759 mmHg 63%
    07:00 +8°C° 0 mm 3 mps 759 mmHg 58%
    08:00 +10°C° 0 mm 3 mps 759 mmHg 52%
    09:00 +10°C° 0 mm 4 mps 759 mmHg 48%
    10:00 +11°C° 0 mm 4 mps 760 mmHg 44%
    11:00 +12°C° 0 mm 5 mps 760 mmHg 40%
    12:00 +12°C° 0 mm 5 mps 760 mmHg 40%
    13:00 +12°C° 0 mm 5 mps 760 mmHg 41%
    14:00 +12°C° 0 mm 5 mps 760 mmHg 41%
    15:00 +12°C° 0 mm 4 mps 760 mmHg 42%
    16:00 +11°C° 0 mm 4 mps 760 mmHg 43%
    17:00 +11°C° 0 mm 4 mps 761 mmHg 44%
    18:00 +10°C° 0 mm 3 mps 761 mmHg 48%
    19:00 +9°C° 0 mm 3 mps 761 mmHg 53%
    20:00 +8°C° 0 mm 2 mps 761 mmHg 57%
    21:00 +7°C° 0 mm 2 mps 761 mmHg 59%
    22:00 +7°C° 0 mm 2 mps 761 mmHg 60%
    23:00 +6°C° 0 mm 2 mps 762 mmHg 62%

    Tomorrow, 20 April, Saturday

    Time Temperature Precipitation Wind Pressure Humidity
    00:00 +6°C° 0 mm 2 mps 762 mmHg 63%
    01:00 +6°C° 0 mm 2 mps 762 mmHg 65%
    02:00 +5°C° 0 mm 2 mps 762 mmHg 66%
    03:00 +5°C° 0 mm 2 mps 762 mmHg 67%
    04:00 +6°C° 0 mm 1 mps 761 mmHg 68%
    05:00 +5°C° 0 mm 1 mps 761 mmHg 69%
    06:00 +7°C° 0 mm 1 mps 762 mmHg 64%
    07:00 +9°C° 0 mm 1 mps 762 mmHg 59%
    08:00 +10°C° 0 mm 1 mps 762 mmHg 54%
    09:00 +11°C° 0 mm 1 mps 762 mmHg 48%
    10:00 +12°C° 0 mm 2 mps 761 mmHg 42%
    11:00 +13°C° 0 mm 2 mps 761 mmHg 36%
    12:00 +13°C° 0 mm 2 mps 761 mmHg 36%
    13:00 +13°C° 0 mm 2 mps 761 mmHg 37%
    14:00 +13°C° 0 mm 1 mps 760 mmHg 37%
    15:00 +13°C° 0 mm 1 mps 760 mmHg 38%
    16:00 +13°C° 0 mm 1 mps 760 mmHg 40%
    17:00 +13°C° 0 mm 1 mps 760 mmHg 41%
    18:00 +13°C° 0 mm 1 mps 760 mmHg 44%
    19:00 +11°C° 0 mm 0 mps 760 mmHg 46%
    20:00 +10°C° 0 mm 0 mps 760 mmHg 49%
    21:00 +10°C° 0 mm 0 mps 760 mmHg 50%
    22:00 +9°C° 0 mm 0 mps 760 mmHg 51%
    23:00 +9°C° 0 mm 0 mps 760 mmHg 52%

    Day after tomorrow, 21 April, Sunday

    Time Temperature Precipitation Wind Pressure Humidity
    00:00 +10°C° 0 mm 1 mps 760 mmHg 53%
    01:00 +10°C° 0 mm 1 mps 759 mmHg 53%
    02:00 +9°C° 0 mm 1 mps 759 mmHg 54%
    03:00 +9°C° 0 mm 1 mps 759 mmHg 56%
    04:00 +9°C° 0 mm 1 mps 759 mmHg 57%
    05:00 +8°C° 0 mm 1 mps 759 mmHg 58%
    06:00 +9°C° 0 mm 1 mps 759 mmHg 55%
    07:00 +10°C° 0 mm 2 mps 759 mmHg 53%
    08:00 +12°C° 0 mm 2 mps 760 mmHg 50%
    09:00 +13°C° 0 mm 2 mps 760 mmHg 46%
    10:00 +12°C° 0 mm 3 mps 760 mmHg 43%
    11:00 +13°C° 0 mm 3 mps 760 mmHg 39%
    12:00 +13°C° 0 mm 3 mps 760 mmHg 39%
    13:00 +13°C° 0 mm 3 mps 760 mmHg 38%
    14:00 +13°C° 0 mm 3 mps 760 mmHg 38%
    15:00 +13°C° 0 mm 3 mps 760 mmHg 40%
    16:00 +13°C° 0 mm 3 mps 760 mmHg 42%
    17:00 +13°C° 0 mm 3 mps 760 mmHg 43%
    18:00 +13°C° 0 mm 2 mps 760 mmHg 47%
    19:00 +10°C° 0 mm 2 mps 760 mmHg 51%
    20:00 +9°C° 0 mm 2 mps 760 mmHg 54%
    21:00 +9°C° 0 mm 2 mps 761 mmHg 56%
    22:00 +8°C° 0 mm 2 mps 761 mmHg 58%
    23:00 +8°C° 0 mm 2 mps 761 mmHg 59%

    22 April, Monday

    Time Temperature Precipitation Wind Pressure Humidity
    00:00 +8°C° 0 mm 2 mps 761 mmHg 60%
    01:00 +8°C° 0 mm 2 mps 761 mmHg 60%
    02:00 +8°C° 0 mm 2 mps 761 mmHg 60%
    03:00 +8°C° 0 mm 2 mps 761 mmHg 60%
    04:00 +8°C° 0 mm 2 mps 762 mmHg 60%
    05:00 +8°C° 0 mm 2 mps 762 mmHg 60%
    06:00 +9°C° 0 mm 3 mps 762 mmHg 58%
    07:00 +10°C° 0 mm 3 mps 762 mmHg 55%
    08:00 +11°C° 0 mm 3 mps 763 mmHg 53%
    09:00 +12°C° 0 mm 3 mps 763 mmHg 48%
    10:00 +13°C° 0 mm 3 mps 763 mmHg 43%
    11:00 +14°C° 0 mm 3 mps 763 mmHg 38%
    12:00 +14°C° 0 mm 3 mps 763 mmHg 38%
    13:00 +14°C° 0 mm 3 mps 763 mmHg 38%
    14:00 +14°C° 0 mm 3 mps 763 mmHg 39%
    15:00 +15°C° 0 mm 2 mps 762 mmHg 40%
    16:00 +15°C° 0 mm 2 mps 762 mmHg 40%
    17:00 +15°C° 0 mm 2 mps 762 mmHg 41%
    18:00 +14°C° 0 mm 2 mps 763 mmHg 46%
    19:00 +13°C° 0 mm 2 mps 763 mmHg 50%
    20:00 +10°C° 0 mm 2 mps 763 mmHg 54%
    21:00 +10°C° 0 mm 2 mps 763 mmHg 57%
    22:00 +9°C° 0 mm 2 mps 763 mmHg 59%
    23:00 +8°C° 0 mm 2 mps 764 mmHg 61%

    23 April, Tuesday

    Time Temperature Precipitation Wind Pressure Humidity
    00:00 +8°C° 0 mm 2 mps 764 mmHg 62%
    01:00 +8°C° 0 mm 1 mps 764 mmHg 63%
    02:00 +8°C° 0 mm 1 mps 764 mmHg 64%
    03:00 +8°C° 0 mm 1 mps 764 mmHg 64%
    04:00 +8°C° 0 mm 1 mps 764 mmHg 65%
    05:00 +7°C° 0 mm 2 mps 764 mmHg 66%
    06:00 +8°C° 0 mm 2 mps 764 mmHg 62%
    07:00 +10°C° 0 mm 2 mps 765 mmHg 58%
    08:00 +13°C° 0 mm 2 mps 765 mmHg 54%
    09:00 +13°C° 0 mm 2 mps 765 mmHg 50%
    10:00 +14°C° 0 mm 2 mps 765 mmHg 46%
    11:00 +15°C° 0 mm 2 mps 765 mmHg 42%
    12:00 +15°C° 0 mm 2 mps 765 mmHg 42%
    13:00 +15°C° 0 mm 2 mps 765 mmHg 41%
    14:00 +15°C° 0 mm 2 mps 765 mmHg 41%
    15:00 +15°C° 0 mm 2 mps 764 mmHg 41%
    16:00 +15°C° 0 mm 2 mps 764 mmHg 42%
    17:00 +15°C° 0 mm 1 mps 764 mmHg 43%
    18:00 +14°C° 0 mm 1 mps 764 mmHg 46%
    19:00 +13°C° 0 mm 1 mps 764 mmHg 48%
    20:00 +13°C° 0 mm 1 mps 764 mmHg 51%
    21:00 +12°C° 0 mm 1 mps 765 mmHg 52%
    22:00 +12°C° 0 mm 1 mps 765 mmHg 53%
    23:00 +12°C° 0 mm 1 mps 765 mmHg 54%

    24 April, Wednesday

    Time Temperature Precipitation Wind Pressure Humidity
    00:00 +11°C° 0 mm 1 mps 765 mmHg 56%
    01:00 +9°C° 0 mm 0 mps 765 mmHg 58%
    02:00 +8°C° 0 mm 0 mps 765 mmHg 60%
    03:00 +9°C° 0 mm 1 mps 765 mmHg 62%
    04:00 +8°C° 0 mm 1 mps 765 mmHg 63%
    05:00 +8°C° 0 mm 1 mps 765 mmHg 65%
    06:00 +10°C° 0 mm 1 mps 765 mmHg 61%
    07:00 +12°C° 0 mm 2 mps 765 mmHg 56%
    08:00 +14°C° 0 mm 2 mps 766 mmHg 51%
    09:00 +15°C° 0 mm 2 mps 765 mmHg 47%
    10:00 +16°C° 0 mm 2 mps 765 mmHg 43%
    11:00 +17°C° 0 mm 3 mps 765 mmHg 38%
    12:00 +17°C° 0 mm 2 mps 765 mmHg 38%
    13:00 +18°C° 0 mm 2 mps 765 mmHg 37%
    14:00 +18°C° 0 mm 2 mps 764 mmHg 36%
    15:00 +18°C° 0 mm 2 mps 764 mmHg 37%
    16:00 +18°C° 0 mm 2 mps 764 mmHg 38%
    17:00 +18°C° 0 mm 2 mps 764 mmHg 39%
    18:00 +16°C° 0 mm 1 mps 764 mmHg 43%
    19:00 +15°C° 0 mm 1 mps 764 mmHg 48%
    20:00 +13°C° 0 mm 1 mps 764 mmHg 52%
    21:00 +13°C° 0 mm 1 mps 764 mmHg 53%
    22:00 +12°C° 0 mm 1 mps 764 mmHg 55%
    23:00 +12°C° 0 mm 1 mps 764 mmHg 56%
    Show more